EW1931 Weather Reports


time (UTC)temp
F
wind
direction
speed
knots
gust
knots
rain 1hr
in
rain 24hr
in
rain mn
in
humidity
%
barometer
mb
20260831191600 71 268 9.6 14.8 0.00 0.00 0.00 39 1012.2
20260831190114 72 246 7.8 13.9 0.00 0.00 0.00 40 1012.4
20260831184539 71 240 6.1 13.9 0.00 0.00 0.00 41 1012.5
20260831183037 71 310 9.6 13.9 0.00 0.00 0.00 41 1012.8
20260831181518 70 256 8.7 15.6 0.00 0.00 0.00 42 1012.7
20260831180015 70 296 6.1 14.8 0.00 0.00 0.00 42 1012.8
20260831174614 69 285 8.7 13.9 0.00 0.00 0.00 44 1012.8
20260831173058 69 312 10.4 17.4 0.00 0.00 0.00 45 1012.8
20260831171553 68 323 7.0 13.9 0.00 0.00 0.00 47 1012.8
20260831170035 67 318 7.8 14.8 0.00 0.00 0.00 47 1012.9
20260831164531 67 295 11.3 15.6 0.00 0.00 0.00 47 1013.0
20260831163010 66 333 8.7 17.4 0.00 0.00 0.00 49 1012.9
20260831161510 65 300 11.3 19.1 0.00 0.00 0.00 48 1012.9
20260831160058 64 319 9.6 18.2 0.00 0.00 0.00 49 1012.9
20260831154617 63 281 13.0 18.2 0.00 0.00 0.00 49 1012.8
20260831153033 63 287 13.0 19.1 0.00 0.00 0.00 50 1012.8
20260831151534 62 284 15.6 20.9 0.00 0.00 0.00 50 1012.7
20260831150016 61 298 14.8 20.0 0.00 0.00 0.00 51 1012.6
20260831144511 59 284 12.2 19.1 0.00 0.00 0.00 55 1012.3
20260831143110 57 313 12.2 16.5 0.00 0.00 0.00 60 1012.2
20260831141611 55 292 11.3 15.6 0.00 0.00 0.00 65 1012.0
20260831140041 52 304 11.3 14.8 0.00 0.00 0.00 69 1012.0
20260831134536 50 284 10.4 13.0 0.00 0.00 0.00 74 1011.9
20260831133021 48 263 7.8 11.3 0.00 0.00 0.00 77 1011.8
20260831131512 48 258 9.6 13.9 0.00 0.00 0.00 77 1011.5
20260831130056 47 281 10.4 13.9 0.00 0.00 0.00 79 1011.3
20260831124559 48 246 8.7 12.2 0.00 0.00 0.00 76 1011.3
20260831123031 47 275 9.6 12.2 0.00 0.00 0.00 77 1011.1
20260831121530 48 261 8.7 12.2 0.00 0.00 0.00 76 1011.0
20260831120013 47 259 8.7 13.0 0.00 0.00 0.00 76 1010.9
20260831114512 47 255 11.3 13.0 0.00 0.00 0.00 77 1010.9
20260831113055 48 261 10.4 13.9 0.00 0.00 0.00 76 1010.8
20260831111555 46 257 8.7 10.4 0.00 0.00 0.00 78 1010.9
20260831110037 47 256 9.6 14.8 0.00 0.00 0.00 77 1010.7
20260831104533 47 264 10.4 13.0 0.00 0.00 0.00 76 1010.4
20260831103014 47 254 11.3 13.9 0.00 0.00 0.00 75 1010.4
20260831101511 47 249 7.8 10.4 0.00 0.00 0.00 75 1010.3
20260831100059 47 251 7.0 9.6 0.00 0.00 0.00 74 1010.3
20260831094551 48 236 8.7 12.2 0.00 0.00 0.00 72 1010.2
20260831093032 49 248 9.6 13.9 0.00 0.00 0.00 71 1010.2
20260831091533 49 245 8.7 10.4 0.00 0.00 0.00 71 1010.3
20260831090014 48 232 7.0 9.6 0.00 0.00 0.00 72 1010.3
20260831084511 48 240 6.1 9.6 0.00 0.00 0.00 72 1009.9
20260831083053 49 229 8.7 10.4 0.00 0.03 0.00 70 1009.9
20260831081551 48 237 8.7 10.4 0.00 0.03 0.00 72 1009.8
20260831080029 50 231 7.8 11.3 0.00 0.03 0.00 69 1009.7
20260831074529 51 264 9.6 13.9 0.00 0.03 0.00 69 1009.6
20260831073022 50 252 7.8 10.4 0.00 0.06 0.00 68 1009.6
20260831071508 52 231 8.7 13.0 0.00 0.06 0.00 66 1009.6
20260831070048 53 255 11.3 15.6 0.00 0.06 0.00 64 1009.4
20260831064551 53 246 10.4 14.8 0.00 0.06 0.00 63 1009.7
20260831063028 54 257 12.2 16.5 0.00 0.06 0.00 62 1009.6
20260831061527 54 246 11.3 13.9 0.00 0.06 0.00 61 1009.5
20260831060004 55 242 9.6 16.5 0.00 0.06 0.00 59 1009.6
20260831054506 55 253 12.2 16.5 0.00 0.06 0.00 58 1009.5
20260831053049 55 255 13.0 17.4 0.00 0.06 0.00 58 1009.4
20260831051555 56 257 15.6 20.9 0.00 0.06 0.00 55 1009.4
20260831050042 58 276 18.2 26.9 0.00 0.06 0.00 51 1009.4
20260831044542 59 275 19.1 26.1 0.00 0.06 0.00 49 1009.3
20260831043039 59 254 19.1 26.1 0.00 0.06 0.00 48 1009.3
20260831041537 60 267 17.4 25.2 0.00 0.06 0.00 48 1009.3
20260831040033 60 265 16.5 25.2 0.00 0.06 0.00 48 1009.3
20260831034533 60 266 15.6 22.6 0.00 0.06 0.00 48 1009.3
20260831033016 59 261 14.8 20.0 0.00 0.06 0.00 49 1009.4
20260831031514 60 264 17.4 21.7 0.00 0.06 0.00 48 1009.2
20260831030110 60 263 16.5 20.9 0.00 0.06 0.00 48 1009.1
20260831024621 59 243 10.4 16.5 0.00 0.06 0.00 49 1009.0
20260831023032 60 260 12.2 19.1 0.00 0.06 0.00 48 1008.9
20260831021531 61 249 15.6 26.1 0.00 0.06 0.00 46 1008.8
20260831020012 62 263 19.1 26.1 0.00 0.06 0.00 45 1008.5
20260831014511 62 267 18.2 26.1 0.00 0.06 0.00 43 1008.5
20260831013110 62 270 17.4 28.7 0.00 0.13 0.00 44 1008.5
20260831011551 62 284 19.1 26.9 0.00 0.13 0.00 44 1008.5
20260831010034 63 269 21.7 30.4 0.00 0.13 0.00 42 1008.4
20260831004533 64 297 18.2 27.8 0.00 0.13 0.00 41 1008.4
20260831003015 65 277 21.7 33.0 0.00 0.13 0.00 41 1008.2
20260831001515 65 274 23.5 33.9 0.00 0.13 0.00 41 1008.2
20260831000057 64 273 18.2 33.0 0.00 0.13 0.00 40 1008.0
20260830234604 64 275 20.9 33.0 0.00 0.13 0.00 41 1008.0
20260830233039 65 244 19.1 26.9 0.00 0.13 0.00 40 1007.9
20260830231539 65 258 19.1 26.1 0.00 0.13 0.00 41 1008.0
20260830230021 64 235 18.2 24.3 0.00 0.13 0.00 42 1008.1
20260830224522 64 229 17.4 23.5 0.00 0.13 0.00 42 1008.2
20260830223002 64 232 19.1 26.1 0.00 0.13 0.00 40 1008.3
20260830221501 64 234 16.5 26.9 0.00 0.13 0.00 41 1008.4
20260830220043 64 232 18.2 26.1 0.00 0.13 0.00 42 1008.4
20260830214542 65 225 19.1 26.1 0.00 0.13 0.00 40 1008.3
20260830213024 66 261 22.6 33.9 0.00 0.13 0.00 39 1008.3
20260830211524 66 268 22.6 29.5 0.00 0.13 0.00 40 1008.1
20260830210006 65 243 18.2 29.5 0.00 0.13 0.00 41 1008.2
20260830204508 65 252 24.3 33.9 0.00 0.13 0.00 45 1008.2
20260830203100 63 283 20.9 31.3 0.00 0.13 0.00 47 1008.0
20260830201549 65 248 17.4 24.3 0.00 0.13 0.00 41 1008.0
20260830200029 65 259 13.9 24.3 0.00 0.13 0.00 40 1007.9
20260830194528 65 267 14.8 22.6 0.00 0.13 0.00 38 1007.8
20260830193011 66 274 14.8 27.8 0.00 0.13 0.00 37 1007.7